Retour au catalogue

STARLINK-30332

ActifCommunicationsVLEO
NORAD 57700·PAYLOAD·🇺🇸 United States

Lancé Aug 27, 2023 depuis Cape Canaveral Space Force Station

Loading…

Prochains Passages (prochaines 24 heures)

TLE

FraisSource: CelesTrak SupGP

Époque: Sep 14, 2026, 22:09 UTC

1 57700C 23129C   26257.92340278 -.00004418  00000+0 -16005-3 0  2573
2 57700  43.0025 136.7186 0001386 267.4168 147.7624 15.27576976    16

Suivez STARLINK-30332 en temps réel avec AllMySat

Download on the App Store